www.pogodaiklimat.ru

Погода и климат >> Архив погоды >> Пакистан >> Sibi


ПОГОДА в Sibi

  • Прогноз погоды в Sibi
  • Монитор погоды в Sibi
  • Климат города

АРХИВ ПОГОДЫ в Sibi

Время (UTC), дата Ветер
(напр.,м/с)
 
Видим.   Явления Облачность Т
(С)
Тd
(С)
f
(%)
Тe
(С)
Тes
(С)
Комфортность P
(гПа)
Po
(гПа)
Тmin
(С)
Tmax
(С)
R
(мм)
R24
(мм)
S
(см)
18 10.07 штиль 0 4000 м ясно +37.8 +26.2 52 +54 +54 опасность
перегрева
992.9 1000.0
21 10.07 штиль 0 4000 м ясно +35.6 +24.3 52 +48 +48 опасность
перегрева
992.8 988.6
00 11.07 штиль 0 4000 м ясно +33.9 +23.3 54 +44 +44 опасность
перегрева
992.4 977.7
03 11.07 штиль 0 10 км ясно +37.8 +24.8 48 +51 +58 опасность
перегрева
993.7 979.4 +31.1
06 11.07 штиль 0 10 км ясно +40.6 +25.4 43 +54 +80 опасность
перегрева
994.5 1000.0
09 11.07 штиль 0 10 км ясно +43.3 +27.5 42 +61 +87 опасность
перегрева
992.1 1000.0
12 11.07 штиль 0 10 км ясно +45.0 +28.5 40 +64 +71 опасность
перегрева
988.8 993.3 +47.1
15 11.07 штиль 0 4000 м ясно +41.1 +26.8 45 +57 +57 опасность
перегрева
989.6 990.0
18 11.07 штиль 0 4000 м ясно +37.2 +24.4 48 +49 +49 опасность
перегрева
992.0 1000.0
21 11.07 штиль 0 4000 м ясно +34.4 +24.7 57 +47 +47 опасность
перегрева
991.4 989.5
00 12.07 штиль 0 4000 м ясно +32.8 +24.6 62 +46 +46 опасность
перегрева
990.8 976.1
03 12.07 штиль 0 10 км ясно +36.7 +24.6 50 +49 +57 опасность
перегрева
992.1 977.7 +30.1
06 12.07 штиль 0 10 км ясно +40.0 +25.6 44 +54 +80 опасность
перегрева
994.0 994.0
09 12.07 штиль 0 10 км ясно +43.9 +27.3 40 +61 +86 опасность
перегрева
991.6 1000.0
12 12.07 штиль 0 10 км ясно +46.1 +28.1 37 +64 +71 опасность
перегрева
983.3 1001.0 +48.5
15 12.07 ЮВ 2 4000 м ясно +42.2 +28.0 46 +61 +61 опасность
перегрева
989.4 1000.0
18 12.07 штиль 0 4000 м ясно +38.3 +27.8 55 +57 +57 опасность
перегрева
991.0 1000.0
21 12.07 штиль 0 4000 м ясно +36.7 +24.6 50 +49 +49 опасность
перегрева
990.3 987.2
00 13.07 штиль 0 4000 м ясно +33.3 +25.1 62 +47 +47 опасность
перегрева
989.7 975.0
03 13.07 штиль 0 10 км ясно +37.2 +25.2 50 +51 +58 опасность
перегрева
991.2 976.8 +29.5
06 13.07 штиль 0 10 км ясно +40.6 +26.2 45 +56 +82 опасность
перегрева
994.0 1000.0
09 13.07 штиль 0 10 км ясно +43.3 +27.5 42 +61 +87 опасность
перегрева
992.1 1015.2
12 13.07 штиль 0 50 км {метель} ?/? +27.3 990.8 1017.0
15 13.07 штиль 0 4000 м ясно +40.6 +26.4 45 +56 +56 опасность
перегрева
990.5 1000.0
18 13.07 ЮЗ 1 4000 м 5/5 300 м
[Sc]
+38.3 +25.4 48 +52 +52 опасность
перегрева
991.8 1000.0
21 13.07 штиль 0 4000 м ясно +36.1 +23.2 48 +47 +47 опасность
перегрева
991.3 987.2
00 14.07 штиль 0 4000 м ясно +33.3 +25.1 62 +47 +47 опасность
перегрева
990.7 976.0
03 14.07 штиль 0 10 км ясно +34.4 +26.3 63 +51 +58 опасность
перегрева
995.5 980.6 +27.1
06 14.07 штиль 0 10 км ясно +38.3 +26.2 50 +54 +80 опасность
перегрева
995.6 1000.0
09 14.07 ЮВ 2 10 км ясно +41.7 +26.6 43 +57 +76 опасность
перегрева
992.8 993.0
12 14.07 штиль 0 10 км ясно +42.8 +26.9 41 +58 +66 опасность
перегрева
989.9 995.3 +43.5
15 14.07 штиль 0 4000 м ясно +40.6 +24.6 41 +53 +53 опасность
перегрева
990.1 1000.0
18 14.07 штиль 0 4000 м ясно +39.4 +23.3 40 +49 +49 опасность
перегрева
991.7 1000.0
21 14.07 штиль 0 4000 м ясно +37.8 +22.3 41 +46 +46 опасность
перегрева
991.1 1000.0
00 15.07 штиль 0 50 км местами туман поземный ?/? +36.0 +24.2 51 +36 +26 очень
жарко
991.8 1009.0
03 15.07 ЮЗ 1 10 км ясно +36.1 +26.4 58 +53 +59 опасность
перегрева
992.8 1001.3 +28.1
06 15.07 штиль 0 10 км ясно +40.0 +26.4 47 +56 +82 опасность
перегрева
993.3 993.0
09 15.07 ЮЗ 1 10 км ясно +43.3 +26.7 40 +59 +81 опасность
перегрева
990.6 1000.0
12 15.07 ЮЗ 1 10 км ясно +45.0 +25.2 33 +57 +63 опасность
перегрева
988.3 1001.2 +45.1
15 15.07 ЮЗ 2 4000 м ясно +42.8 +23.5 34 +53 +53 опасность
перегрева
989.2 1000.0
18 15.07 ЮВ 3 4000 м 5/5 300 м
[Sc]
+33.9 +21.6 49 +42 +42 опасность
перегрева
994.3 1000.0
21 15.07 СЗ 2 4000 м ясно +30.6 +21.7 59 +39 +39 очень
душно
994.1 989.5
00 16.07 СВ 1 4000 м ясно +30.6 +21.7 59 +39 +39 очень
душно
994.1 979.3
03 16.07 ЮВ 1 10 км ясно +34.4 +25.5 60 +49 +55 опасность
перегрева
994.5 979.9 +27.1
06 16.07 штиль 0 10 км ясно +38.3 +25.4 48 +52 +78 опасность
перегрева
995.2 1000.0
09 16.07 ЮЗ 1 10 км ясно +41.7 +25.8 41 +56 +80 опасность
перегрева
992.4 1000.0
12 16.07 ЮЗ 2 10 км 5/5 1200 м
[Sc]
+42.2 +26.4 41 +57 +59 опасность
перегрева
990.3 1000.7 +43.0
15 16.07 ЮВ 3 4000 м 5/5 300 м
[Sc]
+37.8 +25.6 50 +52 +52 опасность
перегрева
993.0 1000.0
18 16.07 ЮВ 3 4000 м 5/5 1200 м
[Sc]
+36.1 +25.6 55 +51 +51 опасность
перегрева
995.5 996.0
21 16.07 СВ 2 4000 м ясно +35.0 +25.3 57 +49 +49 опасность
перегрева
994.4 994.0
00 17.07 штиль 0 4000 м ясно +33.3 +25.1 62 +47 +47 опасность
перегрева
994.6 979.9
03 17.07 ЮЗ 1 10 км 5/5 300 м
[Sc]
+33.3 +25.9 65 +49 +52 опасность
перегрева
996.3 981.6 +25.9
06 17.07 штиль 0 10 км 5/5 300 м
[Sc]
+36.1 +26.4 58 +53 +66 опасность
перегрева
996.9 1000.0
09 17.07 ЮЗ 1 10 км ясно +39.4 +26.6 49 +56 +78 опасность
перегрева
994.0 1000.0
12 17.07 ЮЗ 2 10 км 5/5 300 м
[Sc]
+41.7 +27.4 45 +59 +62 опасность
перегрева
991.5 977.3 +42.1
15 17.07 ЮЗ 2 4000 м 5/5 300 м
[Sc]
+39.4 +27.4 51 +58 +58 опасность
перегрева
992.5 1000.0

 

Местоположение метеостанции Sibi (Пакистан): широта 29.55 долгота 67.88 высота над уровнем моря 134 м.

В архиве по умолчанию представлена погода в Sibi за последнюю неделю. Архивные данные за месяц целиком и за предыдущие месяцы, начиная с января 2011 года, Вы можете получить, выбрав интересующий диапазон дат из раскрывающегося списка и нажав кнопку "Ввод!".


*Определитесь, кто Вы:
робот инопланетянин человек

Внимание! Время в таблицах - всемирное. Для получения местного времени необходимо прибавить поправку, которая в Sibi равна 5 ч.

Смотрите также архив погоды в соседних городах и на ближайших метеорологических станциях:

Погода в Quetta Airport (Пакистан) (124 км)
Погода в Kalat (Пакистан) (139 км)
Погода в Jacobabad (Пакистан) (150 км)
Погода в Barkhan (Пакистан) (181 км)
Погода в Khuzdar (Пакистан) (227 км)
Погода в Rohri (Пакистан) (232 км)
Погода в Zhob (Пакистан) (252 км)
Погода в Khanpur (Пакистан) (290 км)
Погода в Kandahar (Афганистан) (292 км)
Погода в Pad Idan (Пакистан) (301 км)

Пояснения к столбцам:

Ветер - указаны скорость ветра в м/с - средняя за 10 мин, порывы в срок и между сроками (в фигурных скобках) и направление, откуда дует ветер: С - северный, СВ - северо-восточный, В - восточный, ЮВ - юго-восточный, Ю - южный, ЮЗ - юго-западный, З - западный, СЗ - северо-западный.
Видимость - горизонтальная дальность видимости в метрах или километрах. При видимости от 1 до 10 км при отсутствии осадков обычно наблюдается дымка, при ухудшении видимости до 1 км и менее - туман. В сухую погоду видимость может ухудшаться дымом, пылью или мглою.
Явления - указаны атмосферные явления, наблюдавшиеся в срок или в последний час перед сроком; фигурными скобками обозначены явления, наблюдавшиеся между сроками (за 1-3 часа до срока); квадратными скобками обозначены град или гололедные отложения с указанием их диаметра в мм.
Облачность - указаны через наклонную черту общая и нижняя облачность в баллах и высота нижней границы облаков в метрах; квадратными скобками обозначены формы облаков: Ci - перистые, Cs - перисто-слоистые, Cc - перисто-кучевые, Ac - высококучевые, As - высокослоистые, Sc - слоисто-кучевые, Ns - слоисто-дождевые, Cu - кучевые, Cb - кучево-дождевые. Подробнее классификацию облаков см. в Атласе облаков (PDF).
T - Температура воздуха - температура, измеренная на высоте 2 м над землей.
Td - Температура точки росы - температура, при понижении до которой содержащийся в воздухе водяной пар достигнет насыщения.
f - Относительная влажность воздуха - влажноcть воздуха, измеренная на высоте 2 м над землей.
Te - Эффективная температура - температура, которую ощущает одетый по сезону человек в тени. Характеристика душности погоды. При расчете учитывается влияние влажности воздуха и скорости ветра на теплоощущения человека.
Tes - Эффективная температура на солнце - температура, которую ощущает человек, с поправкой на солнечный нагрев. Характеристика знойности погоды. Зависит от высоты солнца над горизонтом, облачности и скорости ветра. Ночью, в пасмурную погоду, а также при ветре 12 м/с и более поправка равна нулю.
P - Атмосферное давление - приведенное к уровню моря атмосферное давление.
Po - Атмосферное давление - измеренное на уровне метеостанции атмосферное давление.
Tmin - Минимальная температура - минимум температуры воздуха на высоте 2 м над землей.
Tmax - Максимальная температура - максимум температуры воздуха на высоте 2 м над землей.
R - Количество осадков - Количество выпавших осадков за период времени, мм. При наведении курсора мыши на число - период времени, за который выпало указанное количество осадков.
R24 - Количество осадков - Количество выпавших осадков за 24 часа, мм.
S - Снежный покров - Высота снежного покрова, см. При наведении курсора мыши на число - состояние снежного покрова и степень покрытия местности в баллах.